www.pogodaiklimat.ru

Погода и климат >> Архив погоды >> Монголия >> Баянбулаг


ПОГОДА в Баянбулаге

  • Прогноз погоды в Баянбулаге
  • Монитор погоды в Баянбулаге

АРХИВ ПОГОДЫ в Баянбулаге

Время (UTC), дата Ветер
(напр.,м/с)
 
Видим.   Явления Облачность Т
(С)
Тd
(С)
f
(%)
Тe
(С)
Тes
(С)
Комфортность P
(гПа)
Po
(гПа)
Тmin
(С)
Tmax
(С)
R
(мм)
R24
(мм)
S
(см)
12 18.06 В 8 50 км 8/5 1000 м
[Cu med, cong Ci fib]
+18.5 +5.7 43 +18 +18 1006.3 773.2 +21.6
15 18.06 СВ 4 н/о 5/0 2000 м
[Ac lent]
+14.2 +6.4 59 +13 +13 1011.6 774.1
18 18.06 СВ 4 н/о 9/5 600 м
[Sc Ac lent]
+14.0 +5.9 58 +13 +13 1012.3 774.5
21 18.06 В 3 н/о {дождь} 8/0 2000 м
[Ac lent Ci fib]
+12.1 +5.5 64 +11 +11 1014.1 774.5
00 19.06 В 1 50 км 6/0 2000 м
[Ac lent Ci fib]
+14.7 +7.2 61 +15 +18 1012.6 775.3 +10.2 0.2
03 19.06 В 5 50 км 9/4 1000 м
[Cu hum Cs]
+17.8 +5.6 45 +17 +21 1009.3 775.1
06 19.06 Ю 4 50 км 9/6 600 м
[Cu hum Cs]
+20.5 +3.3 32 +21 +25 комфорт 1005.8 774.1
09 19.06 Ю 3 50 км 8/6 600 м
[Cu med, cong Ci fib]
+22.1 +1.7 26 +22 +25 комфорт 1003.3 773.2
12 19.06 Ю 3 50 км 6/4 1000 м
[Cu med, cong Ci fib]
+20.3 +4.4 35 +21 +22 комфорт 1005.5 773.8 +22.4
15 19.06 В 12
{13}
н/о 8/8 600 м
[Sc]
+13.3 +6.5 63 +10 +10 1015.8 776.7
18 19.06 СЗ 4 н/о 8/8 600 м
[Sc]
+10.9 +5.5 69 +9 +9 1016.0 776.7
21 19.06 СВ 4 н/о 4/0 2000 м
[Ac lent Ci fib]
+8.0 +5.6 85 +5 +5 1019.8 775.8
00 20.06 С 2 50 км 3/0
[Ci fib]
+11.9 +6.4 69 +11 +14 1016.5 776.2 +7.1
03 20.06 ЮВ 2 50 км 3/0
[Ci fib]
+17.0 +6.8 51 +17 +30 опасность
простуды
1011.7 776.2
06 20.06 Ю 2 50 км 6/4 1000 м
[Cu hum Ac lent Ci fib]
+21.2 +4.9 34 +22 +31 комфорт 1006.9 775.4
09 20.06 СВ 5 50 км 8/6 1000 м
[Cu med, cong Ci fib]
+19.9 +5.0 38 +20 +22 1007.4 774.9
12 20.06 Ю 8 50 км 8/5 600 м
[Cu med, cong Ci fib]
+16.9 +5.2 46 +16 +16 1011.2 775.8 +23.2
15 20.06 С 6 н/о 6/0 2000 м
[Ac lent Ci fib]
+16.1 +4.6 46 +15 +15 1013.1 776.6
18 20.06 С 3 н/о 8/0 2000 м
[Ac trans Ci fib]
+13.5 +6.1 61 +12 +12 1015.3 776.4
21 20.06 штиль 0 н/о 8/0 2000 м
[Ac und Ci fib]
+10.6 +6.6 76 +10 +10 1018.0 776.4
00 21.06 штиль 0 50 км 8/0 2000 м
[Ac und Ci fib]
+14.6 +8.0 65 +14 +17 1014.3 776.5 +10.3
03 21.06 Ю 2 50 км 9/6 1000 м
[Cu med, cong Ci fib]
+18.0 +6.5 47 +19 +23 1011.2 776.5
06 21.06 Ю 8 50 км 8/4 1000 м
[Cu med, cong Ci]
+20.7 +7.0 41 +21 +23 комфорт 1007.6 775.7
09 21.06 З 4 50 км 9/5 1000 м
[Cu med, cong Ci]
+19.5 +5.8 41 +20 +23 1008.2 775.3
12 21.06 С 5 10 км дождь {гроза, ливн. осадки} 10/10 600 м
[Sc diur, vesp]
+14.0 +9.7 75 +12 +12 1015.6 777.0 +21.2 0.4
15 21.06 СВ 5 н/о {дождь} 9/9 600 м
[Sc]
+12.5 +9.8 84 +10 +10 1016.5 776.7
18 21.06 С 3 н/о 9/9 600 м
[Sc]
+12.4 +9.1 80 +11 +11 1016.2 776.3
21 21.06 СЗ 1 н/о 9/9 600 м
[Sc]
+12.6 +9.8 83 +13 +13 1016.5 775.2 4
00 22.06 штиль 0 50 км 9/9 600 м
[Sc]
+12.6 +10.9 89 +12 +12 1015.2 775.7 +10.9 4
03 22.06 штиль 0 50 км 9/9 600 м
[Sc]
+17.1 +7.9 55 +17 +19 1010.4 775.4
06 22.06 ЮВ 3 50 км 8/8 600 м
[Cu Sc]
+19.9 +6.6 42 +21 +24 комфорт 1006.3 774.1
09 22.06 ЮЗ 9 50 км 9/9 600 м
[Sc]
+17.9 +6.9 49 +17 +17 1008.1 774.1
12 22.06 ЮЗ 4 50 км 8/8 600 м
[Sc]
+17.2 +0.4 32 +17 +17 1009.2 774.5 +20.6
15 22.06 штиль 0 н/о 6/0 2000 м
[Ac lent Cs]
+11.8 -0.9 41 +12 +12 1014.8 774.9
18 22.06 штиль 0 н/о 4/0 2000 м
[Ac lent Ci fib]
+9.2 0.0 53 +9 +9 1017.2 774.8
21 22.06 штиль 0 50 км 3/0 2000 м
[Ac lent]
+7.8 +0.4 59 +7 +7 1017.8 774.2
00 23.06 СЗ 2 50 км 6/0 2000 м
[Ac lent Ci fib]
+11.6 +3.8 59 +11 +13 1015.0 774.1 +7.6
03 23.06 штиль 0 50 км 6/0 2000 м
[Ac lent Ci fib]
+17.0 +1.1 34 +17 +28 1009.7 774.1
06 23.06 штиль 0 50 км 8/5 600 м
[Cu hum Ci fib]
+21.0 -2.5 20 +20 +31 1005.5 773.7
09 23.06 С 2 50 км 8/6 600 м
[Cu med, cong Ci fib]
+21.0 -3.6 19 +21 +25 комфорт 1004.6 773.0
12 23.06 ЮЗ 3 50 км 8/5 600 м
[Sc Ac lent Ci sp]
+20.5 -3.3 20 +21 +21 комфорт 1000.7 774.5 +21.2
15 23.06 СВ 3 н/о 8/8 600 м
[Sc]
+15.1 +8.8 66 +14 +14 1008.3 772.2
18 23.06 СВ 2 н/о 9/9 600 м
[Sc]
+14.5 +7.1 61 +14 +14 1009.2 772.5
21 23.06 В 1 н/о 6/4 600 м
[Sc Ac lent Ci fib]
+12.4 +8.6 78 +12 +12 1010.6 772.0
00 24.06 С 4 4000 м слаб. дождь {гроза} 9/9 600 м
[Sc]
+12.4 +9.6 83 +10 +11 1010.3 771.9 +12.0 1
03 24.06 СВ 4 10 км слаб. дождь {гроза} 9/9 600 м
[Sc]
+11.7 +9.6 87 +9 +10 1011.1 771.9
06 24.06 Ю 3 50 км {дождь} 9/9 600 м
[Sc]
+13.8 +9.1 73 +13 +14 1007.4 770.6
09 24.06 СЗ 5 50 км {дождь} 9/9 600 м
[Sc]
+14.5 +8.1 65 +13 +14 1006.3 770.3
12 24.06 СЗ 6 50 км 8/4 600 м
[Sc Ac trans Ci fib]
+11.4 +5.1 65 +9 +9 1009.6 770.6 +16.1 5
15 24.06 З 2 50 км 1/0
[Ci fib]
+7.7 +4.4 80 +6 +6 1014.6 771.5
18 24.06 СЗ 9 н/о 4/0 2000 м
[Ac lent Ci fib]
+8.2 +2.3 66 +4 +4 1013.0 771.0
21 24.06 ЮЗ 2 н/о 3/0 2000 м
[Ac lent Ci fib]
+7.3 +2.3 71 +5 +5 1014.7 771.4
00 25.06 З 3 50 км ясно +8.9 +2.6 65 +7 +9 1013.3 771.6 +4.9
03 25.06 З 9 50 км ясно +11.7 -3.7 34 +9 +10 1009.9 771.0
06 25.06 З 6 50 км 8/8 600 м
[Sc]
+13.8 -4.4 28 +12 +14 1006.7 770.1
09 25.06 З 7 50 км 6/6 600 м
[Sc]
+14.6 -3.7 28 +13 +14 1005.6 769.4

 

Местоположение метеостанции Баянбулаг (Монголия): широта 46.83 долгота 98.08 высота над уровнем моря 2255 м.

В архиве по умолчанию представлена погода в Баянбулаге за последнюю неделю. Архивные данные за месяц целиком и за предыдущие месяцы, начиная с января 2011 года, Вы можете получить, выбрав интересующий диапазон дат из раскрывающегося списка и нажав кнопку "Ввод!".


*Определитесь, кто Вы:
робот инопланетянин человек

Внимание! Время в таблицах - всемирное. Для получения местного времени необходимо прибавить поправку, которая равна 8 ч.

Смотрите также архив погоды в соседних городах и на ближайших метеорологических станциях:

Погода в Улиастае (Монголия) (138 км)
Погода в Алтае (Монголия) (148 км)
Погода в Галууте (Монголия) (157 км)
Погода в Тариате (Монголия) (178 км)
Погода в Эрдэни (Монголия) (188 км)
Погода в Тосонцэнгэле (Монголия) (212 км)
Погода в Баянхонгоре (Монголия) (214 км)
Погода в Амарбуйантайане (Монголия) (250 км)
Погода в Цэцэрлэге (Монголия) (265 км)
Погода в Цэцэн-Ууле (Монголия) (266 км)

Пояснения к столбцам:

Ветер - указаны скорость ветра в м/с - средняя за 10 мин, порывы в срок и между сроками (в фигурных скобках) и направление, откуда дует ветер: С - северный, СВ - северо-восточный, В - восточный, ЮВ - юго-восточный, Ю - южный, ЮЗ - юго-западный, З - западный, СЗ - северо-западный.
Видимость - горизонтальная дальность видимости в метрах или километрах. При видимости от 1 до 10 км при отсутствии осадков обычно наблюдается дымка, при ухудшении видимости до 1 км и менее - туман. В сухую погоду видимость может ухудшаться дымом, пылью или мглою.
Явления - указаны атмосферные явления, наблюдавшиеся в срок или в последний час перед сроком; фигурными скобками обозначены явления, наблюдавшиеся между сроками (за 1-3 часа до срока); квадратными скобками обозначены град или гололедные отложения с указанием их диаметра в мм.
Облачность - указаны через наклонную черту общая и нижняя облачность в баллах и высота нижней границы облаков в метрах; квадратными скобками обозначены формы облаков: Ci - перистые, Cs - перисто-слоистые, Cc - перисто-кучевые, Ac - высококучевые, As - высокослоистые, Sc - слоисто-кучевые, Ns - слоисто-дождевые, Cu - кучевые, Cb - кучево-дождевые. Подробнее классификацию облаков см. в Атласе облаков (PDF).
T - Температура воздуха - температура, измеренная на высоте 2 м над землей.
Td - Температура точки росы - температура, при понижении до которой содержащийся в воздухе водяной пар достигнет насыщения.
f - Относительная влажность воздуха - влажноcть воздуха, измеренная на высоте 2 м над землей.
Te - Эффективная температура - температура, которую ощущает одетый по сезону человек в тени. Характеристика душности погоды. При расчете учитывается влияние влажности воздуха и скорости ветра на теплоощущения человека.
Tes - Эффективная температура на солнце - температура, которую ощущает человек, с поправкой на солнечный нагрев. Характеристика знойности погоды. Зависит от высоты солнца над горизонтом, облачности и скорости ветра. Ночью, в пасмурную погоду, а также при ветре 12 м/с и более поправка равна нулю.
P - Атмосферное давление - приведенное к уровню моря атмосферное давление.
Po - Атмосферное давление - измеренное на уровне метеостанции атмосферное давление.
Tmin - Минимальная температура - минимум температуры воздуха на высоте 2 м над землей.
Tmax - Максимальная температура - максимум температуры воздуха на высоте 2 м над землей.
R - Количество осадков - Количество выпавших осадков за период времени, мм. При наведении курсора мыши на число - период времени, за который выпало указанное количество осадков.
R24 - Количество осадков - Количество выпавших осадков за 24 часа, мм.
S - Снежный покров - Высота снежного покрова, см. При наведении курсора мыши на число - состояние снежного покрова и степень покрытия местности в баллах.